User: anonymous   Login
Location: Caltech
(34.1382°N, 118.1253°W)
Time: 21:39:16
(UTC-08:00)
Language:

Iridium 49 - Orbit

View from above orbital plane
View from above orbital plane
View from above satellite
View from above satellite

Ground track
Ground track

The orbit data is extracted from the following two-line orbital elements,

1 25108U 97082E   16042.65347516  .00000047  00000-0  16739-4 0  9993
2 25108  86.3956 100.9343 0002384  94.6687 265.5268 14.34222015949923
Epoch (UTC): 11 February 2016 15:41:00
Eccentricity: 0.0002384
inclination: 86.3956°
perigee height: 776 km
apogee height: 779 km
right ascension of ascending node: 100.9343°
argument of perigee: 94.6687°
revolutions per day: 14.34222015
mean anomaly at epoch: 265.5268°
orbit number at epoch: 94992

The dashed part of the orbit path shows where the satellite is in the earth's shadow,  

DLR